Location: Plum
(40.5000°N, 79.7500°W)
Time: 17:38:46
(UTC-04:00)

MOZ.5/SAFIR/RUBIN 5/SL-8 - Visible Passes

Search period start: 24 July 2014 00:00
Search period end: 03 August 2014 00:00
Orbit: 681 x 708 km, 97.8° (Epoch: 24 July)

Date Brightness Start Highest point End Pass type
(mag) Time Alt. Az. Time Alt. Az. Time Alt. Az.
25 Jul 7.2 21:08:19 10° NNW 21:10:53 15° WNW 21:13:27 10° W visible
27 Jul 7.0 05:38:04 10° ESE 05:41:07 17° ENE 05:44:11 10° NNE visible
29 Jul 7.5 05:22:42 10° E 05:24:29 12° ENE 05:26:17 10° NE visible
30 Jul 7.5 21:15:36 10° NW 21:17:29 12° WNW 21:19:22 10° W visible
01 Aug 6.9 05:44:18 10° ESE 05:47:44 20° ENE 05:51:12 10° NNE visible
01 Aug 7.1 20:57:45 10° NNW 21:00:52 18° WNW 21:03:57 10° WSW visible
